Погода в Кургане

Погода в Кургане : погода сейчас, прогноз погоды и архив. Всё, что Вы хотите узнать о погоде в Кургане!

Хотите узнать прогноз погоды в Кургане? Тогда Вам сюда: Погода в Кургане

Поиск расширенной информации на нашем сайте:

Другие новости

Новости СМИ2

Главная страница сайта

Новости сайта

02.10.2013

Напоминаем, что на нашем новом сайте вы можете получить высокодетализированные прогнозы погоды по пунктам России, СНГ и мира (включающие важные для авиации метеовеличины, такие как направление и скорость ветра, видимость, явления погоды, количество и форма облачности, нижняя и верхняя граница облачности), а также ознакомиться с разнообразными материалами по авиационной метеорологии и подборкой полезных ссылок на эту тему.

Сайт Метеоцентр.Азия посвящён разработке технологий оптимизации авиаметеорологического обслуживания, включая проектирование и перспективное создание нескольких автоматизированных авиаметеорологических систем:
- система выпуска высокодетальных прогностических карт явлений погоды для нижнего воздушного пространства по России и ближнему зарубежью;
- система верификации прогнозов TAF (выпускаемых синоптиками официальных АМСГ РФ и ближнего зарубежья) и AUTOTAF (выпускаемых сайтом Метеоцентр.Азия) - выявление ошибок, онлайн-сопоставление с фактической погодой METAR, автоматическое внесение коррективов в прогнозы при резком отклонении фактической погоды от прогноза, подсчёт оправдываемости прогнозов по элементам и в целом;
- система обработки, анализа и отображения авиаметеорологической информации для применения провайдерами метеорологической информации.

Рекомендуем: Магазины yves rocher

Погода в Кургане - сегодня

Время (UTC), дата Ветер
(°,м/с) 
Видим.   Явления Облачность Т
(°С)
Тd
(°С)
f(%) Тe
(°С)
Pmin
(гПа)
dP
(гПа)
Po
(мм)
O2
(г/м3)
Тmin Tmax R s Состояние
почвы
06 25.08.16 230 (ЮЗ) 10 км    6/0 средняя, верхняя 
[Ac trans|Ci fib]
+27.3 +16.3 51 +38  1018.9  -0.5  758  274           
09 25.08.16 260 (З) 20000 м    8/5 1000 м кучево-дожд., средняя, верхняя 
[Cb cap|Ac trans|Ci fib]
+30.3 +12.4 33 +35  1017.7  -1.1  757  272           
12 25.08.16 080 (В) 20000 м  гроза без осадков  10/6 1000 м кучево-дожд., средняя, верхняя 
[Cb calv|Ac trans|Ci fib]
+28.8 +14.6 42 +37  1017.4  -0.3  757  273           
15 25.08.16 140 (ЮВ) 10 км  {гроза}  10/3 1000 м средняя, верхняя 
[Sc diur, vesp|Ac trans|Ci fib]
+23.4 +17.6 70 +37  1017.2  -0.4  757  277    +31.2       
18 25.08.16 170 (Ю) 10 км  {гроза}  3/0 верхняя 
[Ci fib]
+19.3 +16.7 85 +33  1017.2  -0.2  756  281           
21 25.08.16 тихо ()   10 км    6/0 верхняя 
[Ci fib]
+18.3 +15.9 86 +28  1016.4  -0.8  756  282           
00 26.08.16 180 (Ю) 10 км    6/0 средняя, верхняя 
[Ac trans|Ci fib]
+16.8 +14.8 88 +26  1016.4  0.1  756  284           
03 26.08.16 190 (Ю) 10 км    6/0 средняя, верхняя 
[Ac trans|Ci fib]
+20.4 +14.5 69 +28  1015.5  -0.7  755  280  +16.5        сухая 
06 26.08.16 190 (Ю) 20000 м    6/0 средняя, верхняя 
[Ac trans|Ci fib]
+27.3 +13.9 44 +34  1014.9  -0.4  755  274           
09 26.08.16 190 (Ю) 20000 м    8/0 верхняя 
[Ci]
+30.6 +10.8 29 +33  1013.1  -1.7  754  271           
12 26.08.16 190 (Ю) 20000 м    10/0 верхняя 
[Ci]
+31 +12.1 31 +35  1011.6  -1.5  752  270           
15 26.08.16 190 (Ю) 10 км    10/4 1000 м кучево-дожд., средняя, верхняя 
[Cb cap|Ac trans|Ci fib]
+24.9 +15.7 57 +35  1010.9  -0.8  752  274    +31.3       
18 26.08.16 180 (Ю) 10 км    8/4 1000 м средняя 
[Sc diur, vesp|Ac trans]
+21 +14.8 68 +29  1010.4  -0.7  751  278           
21 26.08.16 200 (Ю) 10 км    8/8 1000 м 
[Sc diur, vesp]
+21.2 +13.5 61 +27  1009.5  -0.9  751  278           
00 27.08.16 340 (С) 3{12}  10 км    8/8 1000 м 
[Sc diur, vesp]
+18.5 +11.4 63 +22  1010.7  1.2  752  281           
03 27.08.16 200 (Ю) 20000 м  в посл. час ливневой дождь  8/8 1000 м кучево-дожд. 
[Cb cap]
+17 +13.8 81 +25  1010.4  -0.3  751  282  +16.9        влажная 
06 27.08.16 260 (З) 20000 м  {ливн. осадки}  8/0 средняя, верхняя 
[Ac trans|Ci fib]
+21.1 +13.7 63 +28  1010.8  0.5  752  278           
09 27.08.16 260 (З) 20000 м    8/4 1000 м кучево-дожд., средняя, верхняя 
[Cb cap|Ac trans|Ci fib]
+22.3 +11.3 50 +25  1009.9  -0.8  751  278           
12 27.08.16 300 (СЗ) 20000 м  {ливн. осадки}  8/3 1000 м кучево-дожд., средняя, верхняя 
[Cb cap|Ac trans|Ci fib]
+22.2 +8.4 41 +22  1009.6  -0.3  751  278           
15 27.08.16 300 (СЗ) 10 км    6/0 средняя, верхняя 
[Ac trans|Ci fib]
+16.8 +10.2 65 +19  1010.4  0.6  751  283    +23     
18 27.08.16 360 (С) 10 км    3/0 верхняя 
[Ci fib]
+12.7 +10.3 85 +16  1011.4  0.9  752  288           
21 27.08.16 350 (С) 10 км    ясно 
+9.7 +8.7 93 +11  1011.9  0.4  752  291           
00 28.08.16 350 (С) 0200 м  туман  ясно 
+9.5 +8.7 95 +11  1012.5  0.6  753  292           
03 28.08.16 350 (С) 10 км  {туман}  8/4 300 м средняя 
[Sc|Ac trans]
+11 +10.3 95 +13  1012.7  0.3  753  290  +9.3        сухая 
06 28.08.16 210 (ЮЗ) 20000 м  {туман}  5/3 1000 м кучево-дожд., верхняя 
[Cb cap|Ci fib]
+17.8 +10.6 63 +21  1011.8  -0.7  752  283           
Время (UTC), дата Ветер
(°,м/с) 
Видим.   Явления Облачность Т
(°С)
Тd
(°С)
f(%) Тe
(°С)
Pmin
(гПа)
dP
(гПа)
Po
(мм)
O2
(г/м3)
Тmin Tmax R s Состояние
почвы

Для получения пояснительной информации подведите курсор к названию столбца.

ПОГОДА в Кургане - архив

Всё, что Вы хотите узнать о погоде в Кургане - удобно и подробно!

Выберите нужную дату (начиная с 1 января 2015* года) и нажмите кнопку "Найти".
Будут отображены архивные сводки погоды по пункту Курган, начиная с указанной даты.


Отображать данные в формате CSV (для использования в таблицах Excel)


Внимание! Наш архив погоды предназначен исключительно для личного некоммерческого использования в познавательных целях. Если Вам необходимы официальные справки о состоянии погоды (для производственных, юридических, коммерческих и т.п. целей), обращайтесь в органы Росгидромета.

*Примечание: данная дата относится к архиву по метеостанциям СССР (Россия, СНГ, Балтия).
Архив по метеостанциям Зарубежной Европы и Азии (кроме Китая) хранится 10 дней, по другим регионам земного шара (Китай, Африка, Америка, Австралия, Океания) - 1 день.

Курган - район местоположения метеостанции


Название, широта, долгота, высота метеостанции:
Курган 55.5°ш. 65.4°д. 74 м над ур. моря [Российская Федерация]

Дополнительная информация

В oтличие oт бoльшинства пoгoдных сайтoв мы публикуем пoдрoбную метеoинфoрмацию в детальнoм прoфессиoнальнoм фoрмате.

Характеристики температуры и влажнoсти вoздуха измеряются на высoте 2 м в тени вдали oт зданий и деревьев.
Скoрoсть ветра измеряется на высoте 10 м (на урoвне рoста челoвека скoрoсть ветра ниже в 1.5-2 раза). Если метеoстанция нахoдится в гoрoде или в лесу, тo скoрoсть ветра занижена на 2-4 м/с пo сравнению с oткрытым местoм. Скoрoсть ветра над акватoриями крупных рек и oзёр, а также на вершинах хoлмoв на 2-5 м/с выше, чем в oбычных услoвиях.
Атмoсфернoе давление в разных тoчках местнoсти мoжет значительнo oтличаться oт давления на метеoстанции, в зависимoсти oт услoвий рельефа (при пoдъёме на 10 м давление пoнижается примернo на 1 мм рт.ст.).